When you browse on this site, cookies collect data to enhance your experience and personalize the content and advertising you see.
Visit our Privacy Policy to learn more. By continuing to use the site, you agree to this use of cookies and data.
  • In Switzerland
  • List of Countries
  • For 7 days
  • Water Temperature
  • Satellite Maps
  • Weather Map
  • Weather Widgets
  • user-avatar
    Login

    Hourly Weather Naryn

    Today, 23 March, Saturday

    Time Temperature Precipitation Wind Pressure Humidity
    00:00 -5°C° 0 mm 3 mps 565 mmHg 59%
    01:00 -6°C° 0 mm 3 mps 565 mmHg 59%
    02:00 -7°C° 0 mm 3 mps 565 mmHg 60%
    03:00 -7°C° 0 mm 3 mps 565 mmHg 59%
    04:00 -7°C° 0 mm 3 mps 565 mmHg 59%
    05:00 -8°C° 0 mm 3 mps 564 mmHg 59%
    06:00 -7°C° 0 mm 3 mps 565 mmHg 58%
    07:00 -6°C° 0 mm 3 mps 565 mmHg 57%
    08:00 -5°C° 0 mm 3 mps 565 mmHg 56%
    09:00 -3°C° 0 mm 2 mps 565 mmHg 55%
    10:00 -1°C° 0 mm 2 mps 566 mmHg 53%
    11:00 +3°C° 0 mm 1 mps 566 mmHg 52%
    12:00 +3°C° 0 mm 1 mps 566 mmHg 52%
    13:00 +4°C° 0 mm 1 mps 566 mmHg 53%
    14:00 +5°C° 0 mm 1 mps 566 mmHg 53%
    15:00 +4°C° 0 mm 1 mps 565 mmHg 55%
    16:00 +3°C° 0 mm 1 mps 565 mmHg 56%
    17:00 +2°C° 0 mm 1 mps 564 mmHg 57%
    18:00 +1°C° 0 mm 1 mps 564 mmHg 58%
    19:00 0°C° 0 mm 1 mps 564 mmHg 60%
    20:00 -1°C° 0 mm 1 mps 564 mmHg 61%
    21:00 -1°C° 0 mm 1 mps 564 mmHg 60%
    22:00 -2°C° 0 mm 1 mps 564 mmHg 60%
    23:00 -2°C° 0 mm 1 mps 564 mmHg 60%

    Tomorrow, 24 March, Sunday

    Time Temperature Precipitation Wind Pressure Humidity
    00:00 -3°C° 0 mm 1 mps 564 mmHg 60%
    01:00 -3°C° 0 mm 1 mps 564 mmHg 60%
    02:00 -3°C° 0 mm 1 mps 564 mmHg 60%
    03:00 -3°C° 0.1 mm 1 mps 564 mmHg 62%
    04:00 -3°C° 0.1 mm 1 mps 564 mmHg 64%
    05:00 -3°C° 0.1 mm 1 mps 564 mmHg 66%
    06:00 -3°C° 0 mm 1 mps 565 mmHg 66%
    07:00 -2°C° 0 mm 1 mps 565 mmHg 65%
    08:00 -2°C° 0 mm 1 mps 565 mmHg 65%
    09:00 -1°C° 0 mm 1 mps 565 mmHg 63%
    10:00 0°C° 0 mm 1 mps 565 mmHg 62%
    11:00 +1°C° 0 mm 1 mps 565 mmHg 60%
    12:00 +2°C° 0 mm 1 mps 565 mmHg 60%
    13:00 +2°C° 0 mm 1 mps 565 mmHg 59%
    14:00 +3°C° 0 mm 1 mps 565 mmHg 58%
    15:00 +2°C° 0 mm 1 mps 565 mmHg 58%
    16:00 +1°C° 0 mm 1 mps 564 mmHg 58%
    17:00 +1°C° 0 mm 1 mps 564 mmHg 57%
    18:00 0°C° 0 mm 1 mps 564 mmHg 59%
    19:00 -1°C° 0 mm 1 mps 564 mmHg 61%
    20:00 -2°C° 0 mm 1 mps 564 mmHg 63%
    21:00 -3°C° 0 mm 1 mps 564 mmHg 62%
    22:00 -5°C° 0 mm 2 mps 564 mmHg 61%
    23:00 -5°C° 0 mm 2 mps 564 mmHg 60%

    Day after tomorrow, 25 March, Monday

    Time Temperature Precipitation Wind Pressure Humidity
    00:00 -6°C° 0 mm 2 mps 564 mmHg 59%
    01:00 -6°C° 0 mm 2 mps 564 mmHg 58%
    02:00 -6°C° 0 mm 2 mps 564 mmHg 58%
    03:00 -7°C° 0 mm 2 mps 564 mmHg 57%
    04:00 -7°C° 0 mm 2 mps 564 mmHg 57%
    05:00 -7°C° 0 mm 2 mps 564 mmHg 56%
    06:00 -6°C° 0 mm 2 mps 564 mmHg 56%
    07:00 -6°C° 0 mm 2 mps 565 mmHg 55%
    08:00 -3°C° 0 mm 1 mps 565 mmHg 54%
    09:00 -1°C° 0 mm 1 mps 565 mmHg 54%
    10:00 0°C° 0 mm 1 mps 566 mmHg 53%
    11:00 +1°C° 0 mm 1 mps 566 mmHg 52%
    12:00 +2°C° 0 mm 1 mps 566 mmHg 52%
    13:00 +2°C° 0 mm 1 mps 566 mmHg 53%
    14:00 +3°C° 0 mm 1 mps 566 mmHg 53%
    15:00 +2°C° 0 mm 1 mps 566 mmHg 54%
    16:00 +1°C° 0 mm 1 mps 566 mmHg 54%
    17:00 +1°C° 0 mm 1 mps 566 mmHg 55%
    18:00 -1°C° 0 mm 1 mps 566 mmHg 57%
    19:00 -2°C° 0 mm 1 mps 566 mmHg 59%
    20:00 -3°C° 0 mm 1 mps 566 mmHg 62%
    21:00 -5°C° 0 mm 2 mps 566 mmHg 61%
    22:00 -6°C° 0 mm 2 mps 566 mmHg 61%
    23:00 -6°C° 0 mm 2 mps 566 mmHg 60%

    26 March, Tuesday

    Time Temperature Precipitation Wind Pressure Humidity
    00:00 -6°C° 0 mm 2 mps 566 mmHg 60%
    01:00 -7°C° 0 mm 2 mps 566 mmHg 60%
    02:00 -7°C° 0 mm 2 mps 566 mmHg 60%
    03:00 -7°C° 0 mm 2 mps 566 mmHg 60%
    04:00 -7°C° 0 mm 2 mps 566 mmHg 60%
    05:00 -8°C° 0 mm 2 mps 566 mmHg 60%
    06:00 -7°C° 0 mm 2 mps 567 mmHg 60%
    07:00 -6°C° 0 mm 2 mps 567 mmHg 59%
    08:00 -5°C° 0 mm 2 mps 568 mmHg 58%
    09:00 -3°C° 0 mm 2 mps 568 mmHg 56%
    10:00 0°C° 0 mm 1 mps 568 mmHg 53%
    11:00 +2°C° 0 mm 1 mps 569 mmHg 50%
    12:00 +3°C° 0 mm 1 mps 569 mmHg 48%
    13:00 +3°C° 0 mm 1 mps 569 mmHg 46%
    14:00 +4°C° 0 mm 1 mps 569 mmHg 44%
    15:00 +4°C° 0 mm 1 mps 569 mmHg 43%
    16:00 +3°C° 0 mm 1 mps 568 mmHg 43%
    17:00 +3°C° 0 mm 1 mps 568 mmHg 43%
    18:00 +1°C° 0 mm 2 mps 568 mmHg 44%
    19:00 -2°C° 0 mm 3 mps 568 mmHg 46%
    20:00 -4°C° 0 mm 4 mps 568 mmHg 47%
    21:00 -4°C° 0 mm 4 mps 568 mmHg 44%
    22:00 -5°C° 0 mm 4 mps 567 mmHg 41%
    23:00 -5°C° 0 mm 4 mps 567 mmHg 39%

    27 March, Wednesday

    Time Temperature Precipitation Wind Pressure Humidity
    00:00 -5°C° 0 mm 4 mps 567 mmHg 39%
    01:00 -5°C° 0 mm 4 mps 567 mmHg 40%
    02:00 -5°C° 0 mm 4 mps 567 mmHg 41%
    03:00 -4°C° 0 mm 4 mps 567 mmHg 42%
    04:00 -4°C° 0 mm 4 mps 566 mmHg 42%
    05:00 -4°C° 0 mm 4 mps 566 mmHg 43%
    06:00 -3°C° 0 mm 4 mps 567 mmHg 44%
    07:00 -1°C° 0 mm 3 mps 567 mmHg 45%
    08:00 0°C° 0 mm 3 mps 567 mmHg 46%
    09:00 +3°C° 0 mm 2 mps 568 mmHg 48%
    10:00 +4°C° 0 mm 2 mps 569 mmHg 49%
    11:00 +7°C° 0 mm 1 mps 569 mmHg 51%
    12:00 +7°C° 0 mm 1 mps 569 mmHg 51%
    13:00 +7°C° 0 mm 1 mps 569 mmHg 52%
    14:00 +7°C° 0 mm 1 mps 569 mmHg 52%
    15:00 +7°C° 0 mm 1 mps 569 mmHg 52%
    16:00 +7°C° 0 mm 1 mps 568 mmHg 52%
    17:00 +6°C° 0 mm 1 mps 568 mmHg 52%
    18:00 +5°C° 0 mm 1 mps 568 mmHg 53%
    19:00 +3°C° 0 mm 2 mps 567 mmHg 54%
    20:00 +1°C° 0 mm 3 mps 567 mmHg 56%
    21:00 +1°C° 0 mm 3 mps 567 mmHg 55%
    22:00 0°C° 0 mm 3 mps 566 mmHg 54%
    23:00 0°C° 0 mm 3 mps 566 mmHg 53%

    28 March, Thursday

    Time Temperature Precipitation Wind Pressure Humidity
    00:00 0°C° 0 mm 3 mps 566 mmHg 53%
    01:00 0°C° 0 mm 3 mps 565 mmHg 53%
    02:00 0°C° 0 mm 3 mps 565 mmHg 53%
    03:00 0°C° 0 mm 3 mps 565 mmHg 53%
    04:00 0°C° 0 mm 3 mps 565 mmHg 54%
    05:00 0°C° 0 mm 3 mps 565 mmHg 55%
    06:00 +2°C° 0 mm 2 mps 565 mmHg 55%
    07:00 +3°C° 0 mm 2 mps 566 mmHg 55%
    08:00 +4°C° 0 mm 2 mps 566 mmHg 55%
    09:00 +5°C° 0 mm 2 mps 567 mmHg 56%
    10:00 +6°C° 0 mm 2 mps 567 mmHg 57%
    11:00 +7°C° 0 mm 2 mps 568 mmHg 58%
    12:00 +7°C° 0 mm 2 mps 567 mmHg 59%
    13:00 +8°C° 0 mm 1 mps 567 mmHg 59%
    14:00 +8°C° 0 mm 1 mps 567 mmHg 60%
    15:00 +7°C° 0.1 mm 1 mps 567 mmHg 60%
    16:00 +7°C° 0.1 mm 1 mps 566 mmHg 60%
    17:00 +6°C° 0.1 mm 1 mps 566 mmHg 60%
    18:00 +4°C° 0 mm 0 mps 566 mmHg 63%
    19:00 +4°C° 0 mm 0 mps 566 mmHg 65%
    20:00 +3°C° 0 mm 0 mps 566 mmHg 68%
    21:00 +2°C° 0 mm 0 mps 566 mmHg 69%
    22:00 +2°C° 0 mm 0 mps 565 mmHg 70%
    23:00 +1°C° 0 mm 0 mps 565 mmHg 71%
    Show more